Regional Weather Roundup
Issued by NWS

Home | Current Version | Previous Version | Text Only | Print | Product List | Glossary On
Versions: 1 2 3 4 5 6 7 8 9 10 11 12 13 14 15 16 17 18 19 20 21 22 23 24 25 26 27 28 29 30 31 32 33 34 35 36 37 38 39 40 41 42 43 44 45 46 47 48 49 50
261
ASUS44 KJAN 211803
RWRMS

MISSISSIPPI HOURLY WEATHER ROUNDUP
NATIONAL WEATHER SERVICE JACKSON MS
100 PM CDT TUE OCT 21 2014

NOTE: "FAIR: INDICATES FEW OR NO CLOUDS BELOW 12,000 FEET WITH NO
SIGNIFICANT WEATHER AND/OR OBSTRUCTIONS TO VISIBILITY.

MSZ001>002-007>008-010>013-018>021-025>028-034>036-211900-
NORTHWEST MISSISSIPPI

CITY           SKY/WX    TMP DP  RH WIND       PRES   REMARKS
CLARKSDALE     FAIR      73  57  56 CALM      30.09F
CLEVELAND      FAIR      76  63  63 CALM      30.07F
GREENWOOD      SUNNY     75  59  57 VRB5      30.07F
6HR MIN TEMP:  48; 6HR MAX TEMP:  77;

GREENVILLE     SUNNY     77  58  51 VRB3      30.07F
6HR MIN TEMP:  53; 6HR MAX TEMP:  77;

GRENADA          N/A    N/A N/A N/A MISG        N/A
OLIVE BRANCH   SUNNY     73  46  38 N9        30.09F
OXFORD         FAIR      73  50  43 N5        30.09F
TUNICA         CLEAR     73  50  43 N8        30.09F
$$

MSZ003>006-009-014>017-022>024-029>033-037>039-211900-
NORTHEAST MISSISSIPPI

CITY           SKY/WX    TMP DP  RH WIND       PRES   REMARKS
COLUMBUS AFB   SUNNY     75  58  54 NW6       30.05F
6HR MIN TEMP:  45; 6HR MAX TEMP:  75; 6HR PCP: TRACE;

CORINTH        FAIR      73  46  38 NE8       30.07F
GOLDN TRIANGLE MOSUNNY   79  57  47 N6        30.05F
STARKVILLE     FAIR      75  55  50 NW5       30.05F
TUPELO         SUNNY     75  52  44 NE8       30.06F
6HR MIN TEMP:  49; 6HR MAX TEMP:  75;

$$

MSZ040-058-211900-
CENTRAL MISSISSIPPI

CITY           SKY/WX    TMP DP  RH WIND       PRES   REMARKS
JACKSON INTL   SUNNY     75  51  43 CALM      30.07F
6HR MIN TEMP:  48; 6HR MAX TEMP:  76;

JACKSON HAWKNS SUNNY     76  55  48 CALM      30.07F
MERIDIAN KEY   SUNNY     76  53  44 VRB5      30.05F
6HR MIN TEMP:  45; 6HR MAX TEMP:  76; 6HR PCP: TRACE;

MERIDIAN NAS   MOSUNNY   75  53  46 VRB3      30.06F
6HR MIN TEMP:  46; 6HR MAX TEMP:  75;

RAYMOND        FAIR      75  72  88 CALM      30.08F
VICKSBURG      SUNNY     76  56  49 VRB3      30.08F
6HR MIN TEMP:  48; 6HR MAX TEMP:  76;

$$

MSZ059>079-211900-
SOUTH MISSISSIPPI

CITY           SKY/WX    TMP DP  RH WIND       PRES   REMARKS
BROOKHAVEN     FAIR      73  54  49 N5        30.09F
HATTIESBURG    SUNNY     77  52  41 N7        30.05F
6HR MIN TEMP:  49; 6HR MAX TEMP:  77;

MCCOMB         SUNNY     76  51  41 N6        30.06F
6HR MIN TEMP:  57; 6HR MAX TEMP:  76;

NATCHEZ        SUNNY     75  55  50 CALM      30.09F
6HR MIN TEMP:  50; 6HR MAX TEMP:  75;

PINE BELT      SUNNY     75  52  43 CALM      30.07F
6HR MIN TEMP:  48; 6HR MAX TEMP:  77;

$$

MSZ080>082-211900-
COASTAL MISSISSIPPI

CITY           SKY/WX    TMP DP  RH WIND       PRES   REMARKS
BAY ST LOUIS   SUNNY     79  45  29 NE7       30.04
BILOXI         SUNNY     78  52  40 NE8       30.02F
6HR MIN TEMP:  55; 6HR MAX TEMP:  78;

PASCAGOULA     SUNNY     78  51  38 NE9       30.02F
6HR MIN TEMP:  49; 6HR MAX TEMP:  79;

GULFPORT       SUNNY     78  50  37 NE9       30.02F
6HR MIN TEMP:  54; 6HR MAX TEMP:  79;

$$



USA.gov is the U.S. government's official web portal to all federal, state and local government web resources and services.